FIN6EH ESSA-EFHK

Flight info

Callsign FIN6EH
Flight time 0h 39m
Altitude 31000
Route TOVRI N851 RIKUM DCT RIRIP Y364 LAKUT
Aircraft A319/M-SDE3FGHIRWY/LB1

Departure

Time 2026-05-05 17:29
Airport Stockholm-Arlanda Airport (ESSA)

Arrival

Time 2026-05-05 18:08
Airport Helsinki Vantaa Airport (EFHK)
Time Latitude Longitude Altitude Speed Heading
2026-05-05 16:53 59.64375 17.92806 112 ft 0 kts 41°
2026-05-05 17:21 59.64367 17.92792 112 ft 4 kts 41°
2026-05-05 17:21 59.64347 17.92757 111 ft 4 kts 41°
2026-05-05 17:22 59.64316 17.92705 111 ft 0 kts 41°
2026-05-05 17:24 59.64317 17.92707 112 ft 1 kts 43°
2026-05-05 17:25 59.64307 17.92739 111 ft 6 kts 168°
2026-05-05 17:25 59.64287 17.92729 112 ft 13 kts 200°
2026-05-05 17:25 59.64183 17.92853 111 ft 17 kts 144°
2026-05-05 17:25 59.64147 17.92694 113 ft 16 kts 297°
2026-05-05 17:26 59.64187 17.92544 114 ft 20 kts 298°
2026-05-05 17:26 59.64251 17.92309 116 ft 16 kts 298°
2026-05-05 17:26 59.64295 17.92144 113 ft 17 kts 297°
2026-05-05 17:26 59.64297 17.91901 113 ft 21 kts 212°
2026-05-05 17:27 59.64101 17.91817 114 ft 24 kts 190°
2026-05-05 17:27 59.63988 17.91776 112 ft 25 kts 190°
2026-05-05 17:27 59.63845 17.91706 108 ft 20 kts 206°
2026-05-05 17:27 59.63738 17.91519 107 ft 21 kts 241°
2026-05-05 17:28 59.63770 17.91352 110 ft 13 kts 341°
2026-05-05 17:28 59.63871 17.91377 109 ft 17 kts 11°
2026-05-05 17:28 59.64167 17.91483 107 ft 85 kts 10°
2026-05-05 17:28 59.64995 17.91785 129 ft 151 kts 12°
2026-05-05 17:29 59.66055 17.92176 773 ft 158 kts 10°
2026-05-05 17:29 59.67139 17.92567 1589 ft 163 kts
2026-05-05 17:29 59.68328 17.92988 2130 ft 185 kts
2026-05-05 17:29 59.69665 17.93462 2703 ft 202 kts
2026-05-05 17:30 59.71069 17.93968 3530 ft 207 kts
2026-05-05 17:30 59.72494 17.94485 4391 ft 210 kts
2026-05-05 17:30 59.73956 17.95029 4891 ft 217 kts
2026-05-05 17:30 59.75298 17.96642 5217 ft 248 kts 49°
2026-05-05 17:31 59.75970 17.99979 5833 ft 276 kts 81°
2026-05-05 17:31 59.76001 18.03833 6878 ft 283 kts 93°
2026-05-05 17:31 59.75814 18.07745 7963 ft 288 kts 96°
2026-05-05 17:31 59.75797 18.11737 8990 ft 293 kts 79°
2026-05-05 17:32 59.76383 18.15638 10059 ft 298 kts 70°
2026-05-05 17:32 59.77076 18.19678 10595 ft 321 kts 70°
2026-05-05 17:32 59.77821 18.23989 11293 ft 336 kts 70°
2026-05-05 17:32 59.78587 18.28433 12179 ft 344 kts 70°
2026-05-05 17:33 59.79364 18.32980 13097 ft 351 kts 70°
2026-05-05 17:33 59.80152 18.37622 13958 ft 358 kts 71°
2026-05-05 17:33 59.80951 18.42369 14629 ft 369 kts 70°
2026-05-05 17:33 59.81777 18.47284 15238 ft 381 kts 71°
2026-05-05 17:34 59.82627 18.52357 15829 ft 393 kts 71°
2026-05-05 17:34 59.83499 18.57586 16417 ft 405 kts 71°
2026-05-05 17:34 59.84397 18.62972 16993 ft 416 kts 71°
2026-05-05 17:34 59.85318 18.68505 17566 ft 427 kts 71°
2026-05-05 17:35 59.86262 18.74191 18130 ft 438 kts 71°
2026-05-05 17:35 59.87225 18.80015 18621 ft 446 kts 71°
2026-05-05 17:35 59.88198 18.85915 19295 ft 450 kts 71°
2026-05-05 17:35 59.89175 18.91857 19978 ft 454 kts 71°
2026-05-05 17:36 59.90158 18.97868 20672 ft 457 kts 71°
2026-05-05 17:36 59.91146 19.03919 21356 ft 461 kts 71°
2026-05-05 17:36 59.92128 19.09938 22027 ft 465 kts 71°
2026-05-05 17:36 59.93128 19.16085 22689 ft 468 kts 71°
2026-05-05 17:37 59.94134 19.22300 23393 ft 473 kts 72°
2026-05-05 17:37 59.95149 19.28593 23872 ft 480 kts 72°
2026-05-05 17:37 59.96168 19.34972 24406 ft 483 kts 72°
2026-05-05 17:37 59.97176 19.41398 24942 ft 487 kts 73°
2026-05-05 17:38 59.98100 19.47924 25473 ft 490 kts 76°
2026-05-05 17:38 59.98934 19.54541 25998 ft 493 kts 77°
2026-05-05 17:38 59.99709 19.61229 26514 ft 496 kts 78°
2026-05-05 17:38 60.00462 19.67967 27020 ft 499 kts 78°
2026-05-05 17:39 60.01223 19.74759 27517 ft 502 kts 78°
2026-05-05 17:39 60.02006 19.81570 28021 ft 505 kts 78°
2026-05-05 17:39 60.02816 19.88424 28500 ft 508 kts 77°
2026-05-05 17:39 60.03644 19.95313 28985 ft 511 kts 77°
2026-05-05 17:40 60.04479 20.02240 29463 ft 514 kts 77°
2026-05-05 17:40 60.05311 20.09215 29939 ft 517 kts 78°
2026-05-05 17:40 60.06137 20.16239 30336 ft 520 kts 78°
2026-05-05 17:40 60.06960 20.23315 30709 ft 522 kts 78°
2026-05-05 17:41 60.07777 20.30391 30838 ft 520 kts 78°
2026-05-05 17:41 60.08575 20.37335 30838 ft 502 kts 78°
2026-05-05 17:41 60.09342 20.44030 30867 ft 485 kts 78°
2026-05-05 17:42 60.10818 20.57054 30854 ft 476 kts 79°
2026-05-05 17:42 60.12192 20.70006 30862 ft 475 kts 80°
2026-05-05 17:43 60.13511 20.82977 30863 ft 474 kts 80°
2026-05-05 17:43 60.14818 20.95857 30856 ft 474 kts 80°
2026-05-05 17:44 60.16137 21.08830 30859 ft 474 kts 80°
2026-05-05 17:44 60.17448 21.21790 30840 ft 474 kts 81°
2026-05-05 17:45 60.18747 21.34783 30861 ft 481 kts 81°
2026-05-05 17:45 60.20063 21.48178 30856 ft 493 kts 81°
2026-05-05 17:46 60.21381 21.61746 30855 ft 495 kts 81°
2026-05-05 17:46 60.22692 21.75356 30856 ft 495 kts 81°
2026-05-05 17:47 60.23988 21.88971 30848 ft 495 kts 81°
2026-05-05 17:47 60.25271 22.02590 30847 ft 496 kts 81°
2026-05-05 17:48 60.26542 22.16238 30715 ft 496 kts 81°
2026-05-05 17:48 60.27172 22.23067 30462 ft 496 kts 81°
2026-05-05 17:48 60.27797 22.29877 29971 ft 494 kts 81°
2026-05-05 17:48 60.28421 22.36698 29200 ft 495 kts 82°
2026-05-05 17:49 60.29039 22.43501 28570 ft 492 kts 82°
2026-05-05 17:49 60.29651 22.50272 27920 ft 490 kts 82°
2026-05-05 17:49 60.30257 22.57013 27360 ft 488 kts 82°
2026-05-05 17:49 60.30858 22.63758 26646 ft 488 kts 82°
2026-05-05 17:50 60.31450 22.70480 26010 ft 486 kts 82°
2026-05-05 17:50 60.32037 22.77180 25483 ft 483 kts 82°
2026-05-05 17:50 60.32619 22.83837 24889 ft 481 kts 82°
2026-05-05 17:50 60.33196 22.90478 24316 ft 479 kts 82°
2026-05-05 17:51 60.33756 22.97009 23743 ft 478 kts 82°
2026-05-05 17:51 60.34326 23.03717 23092 ft 478 kts 83°
2026-05-05 17:51 60.34884 23.10319 22487 ft 476 kts 82°
2026-05-05 17:51 60.35434 23.16813 21894 ft 475 kts 82°
2026-05-05 17:52 60.35989 23.23379 21276 ft 475 kts 82°
2026-05-05 17:52 60.36539 23.29920 20752 ft 471 kts 82°
2026-05-05 17:52 60.37086 23.36449 20250 ft 468 kts 82°
2026-05-05 17:52 60.37621 23.42894 19769 ft 464 kts 83°
2026-05-05 17:53 60.38147 23.49304 19249 ft 461 kts 83°
2026-05-05 17:53 60.38667 23.55679 18765 ft 456 kts 82°
2026-05-05 17:53 60.39177 23.61972 18329 ft 452 kts 82°
2026-05-05 17:53 60.39680 23.68218 17811 ft 448 kts 82°
2026-05-05 17:54 60.40176 23.74412 17343 ft 444 kts 82°
2026-05-05 17:54 60.40662 23.80553 16794 ft 440 kts 83°
2026-05-05 17:54 60.41141 23.86637 16305 ft 436 kts 83°
2026-05-05 17:54 60.41616 23.92657 15856 ft 430 kts 83°
2026-05-05 17:55 60.42083 23.98584 15306 ft 423 kts 83°
2026-05-05 17:55 60.42539 24.04415 14720 ft 416 kts 83°
2026-05-05 17:55 60.42984 24.10148 14146 ft 409 kts 83°
2026-05-05 17:55 60.43420 24.15789 13573 ft 402 kts 83°
2026-05-05 17:56 60.43842 24.21330 12935 ft 394 kts 82°
2026-05-05 17:56 60.44253 24.26754 12316 ft 385 kts 82°
2026-05-05 17:56 60.44654 24.32065 11694 ft 377 kts 82°
2026-05-05 17:56 60.45045 24.37278 11035 ft 371 kts 82°
2026-05-05 17:57 60.45426 24.42376 10634 ft 358 kts 81°
2026-05-05 17:57 60.45788 24.47218 10506 ft 338 kts 81°
2026-05-05 17:57 60.46125 24.51801 10287 ft 322 kts 81°
2026-05-05 17:57 60.46448 24.56233 9802 ft 314 kts 81°
2026-05-05 17:58 60.46763 24.60568 9230 ft 308 kts 81°
2026-05-05 17:58 60.47074 24.64821 8610 ft 302 kts 81°
2026-05-05 17:58 60.47378 24.69004 7987 ft 298 kts 81°
2026-05-05 17:58 60.47674 24.73120 7458 ft 292 kts 81°
2026-05-05 17:59 60.47964 24.77174 7033 ft 291 kts 80°
2026-05-05 17:59 60.48251 24.81204 6596 ft 287 kts 80°
2026-05-05 17:59 60.48536 24.85190 6177 ft 284 kts 80°
2026-05-05 17:59 60.48817 24.89142 5732 ft 282 kts 80°
2026-05-05 18:00 60.49095 24.93057 5322 ft 279 kts 80°
2026-05-05 18:00 60.49365 24.96887 5012 ft 266 kts 81°
2026-05-05 18:00 60.49613 25.00470 4955 ft 251 kts 81°
2026-05-05 18:00 60.49854 25.03960 4867 ft 249 kts 80°
2026-05-05 18:01 60.50096 25.07436 4762 ft 248 kts 80°
2026-05-05 18:01 60.50120 25.10917 4515 ft 248 kts 103°
2026-05-05 18:01 60.49557 25.14179 4323 ft 243 kts 112°
2026-05-05 18:01 60.48938 25.17323 4112 ft 237 kts 113°
2026-05-05 18:02 60.48322 25.20377 3935 ft 229 kts 114°
2026-05-05 18:02 60.47683 25.23222 3729 ft 217 kts 124°
2026-05-05 18:02 60.46524 25.24832 3550 ft 196 kts 174°
2026-05-05 18:02 60.45307 25.24268 3406 ft 171 kts 219°
2026-05-05 18:03 60.44427 25.22812 3270 ft 158 kts 228°
2026-05-05 18:03 60.43657 25.21279 3184 ft 154 kts 231°
2026-05-05 18:03 60.42921 25.19714 3055 ft 152 kts 232°
2026-05-05 18:03 60.42240 25.18234 2886 ft 136 kts 234°
2026-05-05 18:04 60.41624 25.16873 2725 ft 134 kts 234°
2026-05-05 18:04 60.40979 25.15438 2542 ft 140 kts 234°
2026-05-05 18:04 60.40332 25.14003 2351 ft 140 kts 234°
2026-05-05 18:04 60.39678 25.12552 2156 ft 139 kts 234°
2026-05-05 18:05 60.39029 25.11111 1954 ft 138 kts 233°
2026-05-05 18:05 60.38384 25.09681 1767 ft 137 kts 234°
2026-05-05 18:05 60.37751 25.08281 1572 ft 128 kts 234°
2026-05-05 18:05 60.37173 25.07001 1403 ft 120 kts 235°
2026-05-05 18:06 60.36617 25.05767 1236 ft 117 kts 235°
2026-05-05 18:06 60.36431 25.05355 1182 ft 117 kts 235°
2026-05-05 18:06 60.35528 25.03356 918 ft 115 kts 232°
2026-05-05 18:06 60.34987 25.02158 752 ft 115 kts 234°
2026-05-05 18:07 60.34453 25.00964 628 ft 114 kts 232°
2026-05-05 18:07 60.33912 24.99775 499 ft 115 kts 231°
2026-05-05 18:07 60.33367 24.98573 304 ft 117 kts 231°
2026-05-05 18:07 60.32821 24.97375 196 ft 115 kts 230°
2026-05-05 18:08 60.32362 24.96348 178 ft 79 kts 227°
2026-05-05 18:08 60.32141 24.95865 176 ft 16 kts 225°
2026-05-05 18:08 60.32067 24.95810 174 ft 13 kts 166°
2026-05-05 18:08 60.31983 24.95929 171 ft 17 kts 133°
2026-05-05 18:09 60.32009 24.96142 169 ft 18 kts 47°
2026-05-05 18:09 60.32100 24.96343 167 ft 20 kts 47°
2026-05-05 18:09 60.32195 24.96554 168 ft 21 kts 46°
2026-05-05 18:09 60.32223 24.96751 165 ft 16 kts 138°
2026-05-05 18:10 60.32124 24.96875 164 ft 18 kts 149°
2026-05-05 18:10 60.32011 24.97005 163 ft 19 kts 152°
2026-05-05 18:10 60.31887 24.97135 163 ft 21 kts 154°
2026-05-05 18:10 60.31768 24.97253 163 ft 9 kts 153°
2026-05-05 18:11 60.31729 24.97240 163 ft 6 kts 236°
2026-05-05 18:11 60.31710 24.97166 164 ft 3 kts 243°
2026-05-05 18:11 60.31706 24.97150 164 ft 0 kts 243°